When you browse on this site, cookies collect data to enhance your experience and personalize the content and advertising you see.
Visit our Privacy Policy to learn more. By continuing to use the site, you agree to this use of cookies and data.
  • In Latvia
  • List of Countries
  • For 7 days
  • Water Temperature
  • Weather Map
  • Weather Widgets
  • user-avatar
    Login

    Hourly Weather Juwaja

    Today, 23 September, Monday

    Time Temperature Precipitation Wind Pressure Humidity
    00:00 +22°C° 0 mm 4 mps 736 mmHg 77%
    01:00 +21°C° 0 mm 4 mps 736 mmHg 76%
    02:00 +21°C° 0 mm 4 mps 736 mmHg 74%
    03:00 +21°C° 0 mm 4 mps 736 mmHg 74%
    04:00 +21°C° 0 mm 4 mps 736 mmHg 73%
    05:00 +20°C° 0 mm 3 mps 736 mmHg 72%
    06:00 +22°C° 0 mm 3 mps 737 mmHg 62%
    07:00 +25°C° 0 mm 3 mps 737 mmHg 52%
    08:00 +28°C° 0 mm 3 mps 737 mmHg 42%
    09:00 +29°C° 0 mm 3 mps 737 mmHg 39%
    10:00 +30°C° 0 mm 4 mps 737 mmHg 36%
    11:00 +32°C° 0 mm 5 mps 737 mmHg 33%
    12:00 +30°C° 0 mm 6 mps 737 mmHg 36%
    13:00 +30°C° 0 mm 6 mps 736 mmHg 39%
    14:00 +30°C° 0 mm 6 mps 736 mmHg 41%
    15:00 +28°C° 0 mm 6 mps 736 mmHg 46%
    16:00 +27°C° 0 mm 5 mps 736 mmHg 51%
    17:00 +26°C° 0 mm 4 mps 736 mmHg 56%
    18:00 +25°C° 0 mm 4 mps 736 mmHg 61%
    19:00 +22°C° 0 mm 3 mps 736 mmHg 67%
    20:00 +21°C° 0 mm 3 mps 736 mmHg 72%
    21:00 +20°C° 0 mm 2 mps 736 mmHg 72%
    22:00 +20°C° 0 mm 2 mps 736 mmHg 71%
    23:00 +20°C° 0 mm 2 mps 736 mmHg 71%

    Tomorrow, 24 September, Tuesday

    Time Temperature Precipitation Wind Pressure Humidity
    00:00 +19°C° 0 mm 2 mps 736 mmHg 70%
    01:00 +19°C° 0 mm 2 mps 736 mmHg 70%
    02:00 +19°C° 0 mm 1 mps 736 mmHg 69%
    03:00 +19°C° 0 mm 1 mps 736 mmHg 70%
    04:00 +19°C° 0 mm 1 mps 736 mmHg 70%
    05:00 +19°C° 0 mm 1 mps 736 mmHg 71%
    06:00 +21°C° 0 mm 1 mps 736 mmHg 62%
    07:00 +24°C° 0 mm 1 mps 737 mmHg 53%
    08:00 +26°C° 0 mm 1 mps 737 mmHg 44%
    09:00 +28°C° 0 mm 2 mps 737 mmHg 42%
    10:00 +29°C° 0 mm 2 mps 737 mmHg 40%
    11:00 +30°C° 0 mm 3 mps 737 mmHg 38%
    12:00 +30°C° 0 mm 4 mps 736 mmHg 41%
    13:00 +30°C° 0 mm 4 mps 736 mmHg 44%
    14:00 +30°C° 0 mm 5 mps 735 mmHg 48%
    15:00 +29°C° 0 mm 5 mps 735 mmHg 52%
    16:00 +27°C° 0 mm 5 mps 735 mmHg 56%
    17:00 +26°C° 0 mm 4 mps 734 mmHg 60%
    18:00 +25°C° 0 mm 4 mps 735 mmHg 66%
    19:00 +22°C° 0 mm 3 mps 735 mmHg 72%
    20:00 +21°C° 0 mm 2 mps 735 mmHg 77%
    21:00 +20°C° 0 mm 2 mps 735 mmHg 78%
    22:00 +20°C° 0 mm 2 mps 735 mmHg 78%
    23:00 +19°C° 0 mm 2 mps 735 mmHg 79%

    Day after tomorrow, 25 September, Wednesday

    Time Temperature Precipitation Wind Pressure Humidity
    00:00 +20°C° 0 mm 1 mps 734 mmHg 80%
    01:00 +19°C° 0 mm 1 mps 734 mmHg 80%
    02:00 +19°C° 0 mm 1 mps 734 mmHg 81%
    03:00 +19°C° 0 mm 1 mps 734 mmHg 82%
    04:00 +19°C° 0 mm 1 mps 734 mmHg 82%
    05:00 +18°C° 0 mm 1 mps 734 mmHg 83%
    06:00 +21°C° 0 mm 1 mps 735 mmHg 75%
    07:00 +23°C° 0 mm 1 mps 735 mmHg 66%
    08:00 +26°C° 0 mm 1 mps 735 mmHg 58%
    09:00 +27°C° 0 mm 2 mps 735 mmHg 53%
    10:00 +28°C° 0 mm 2 mps 735 mmHg 47%
    11:00 +30°C° 0 mm 3 mps 735 mmHg 42%
    12:00 +30°C° 0 mm 4 mps 735 mmHg 42%
    13:00 +30°C° 0 mm 4 mps 735 mmHg 42%
    14:00 +30°C° 0 mm 4 mps 734 mmHg 42%
    15:00 +28°C° 0 mm 4 mps 734 mmHg 47%
    16:00 +27°C° 0 mm 4 mps 734 mmHg 52%
    17:00 +26°C° 0 mm 3 mps 734 mmHg 57%
    18:00 +24°C° 0 mm 3 mps 734 mmHg 63%
    19:00 +22°C° 0 mm 3 mps 735 mmHg 69%
    20:00 +20°C° 0 mm 2 mps 735 mmHg 75%
    21:00 +20°C° 0 mm 2 mps 735 mmHg 74%
    22:00 +20°C° 0 mm 2 mps 735 mmHg 74%
    23:00 +21°C° 0 mm 1 mps 735 mmHg 73%

    26 September, Thursday

    Time Temperature Precipitation Wind Pressure Humidity
    00:00 +20°C° 0 mm 1 mps 735 mmHg 73%
    01:00 +20°C° 0 mm 1 mps 735 mmHg 73%
    02:00 +20°C° 0 mm 1 mps 735 mmHg 72%
    03:00 +20°C° 0 mm 1 mps 735 mmHg 73%
    04:00 +20°C° 0 mm 1 mps 735 mmHg 73%
    05:00 +20°C° 0 mm 1 mps 735 mmHg 74%
    06:00 +22°C° 0 mm 1 mps 735 mmHg 66%
    07:00 +24°C° 0 mm 1 mps 736 mmHg 58%
    08:00 +27°C° 0 mm 1 mps 736 mmHg 50%
    09:00 +28°C° 0 mm 2 mps 736 mmHg 49%
    10:00 +29°C° 0 mm 2 mps 737 mmHg 47%
    11:00 +30°C° 0 mm 3 mps 737 mmHg 46%
    12:00 +30°C° 0 mm 3 mps 736 mmHg 46%
    13:00 +32°C° 0 mm 4 mps 736 mmHg 46%
    14:00 +32°C° 0 mm 4 mps 735 mmHg 47%
    15:00 +29°C° 0 mm 3 mps 735 mmHg 51%
    16:00 +28°C° 0 mm 3 mps 735 mmHg 55%
    17:00 +27°C° 0 mm 2 mps 735 mmHg 60%
    18:00 +26°C° 0 mm 2 mps 735 mmHg 66%
    19:00 +24°C° 0 mm 2 mps 735 mmHg 71%
    20:00 +23°C° 0 mm 1 mps 735 mmHg 77%
    21:00 +22°C° 0 mm 1 mps 735 mmHg 76%
    22:00 +22°C° 0 mm 1 mps 735 mmHg 75%
    23:00 +22°C° 0 mm 1 mps 735 mmHg 73%

    27 September, Friday

    Time Temperature Precipitation Wind Pressure Humidity
    00:00 +21°C° 0 mm 1 mps 735 mmHg 73%
    01:00 +21°C° 0 mm 1 mps 735 mmHg 74%
    02:00 +21°C° 0 mm 1 mps 735 mmHg 74%
    03:00 +20°C° 0 mm 1 mps 735 mmHg 74%
    04:00 +20°C° 0 mm 1 mps 735 mmHg 75%
    05:00 +20°C° 0 mm 1 mps 735 mmHg 75%
    06:00 +22°C° 0 mm 1 mps 735 mmHg 67%
    07:00 +23°C° 0 mm 0 mps 736 mmHg 59%
    08:00 +25°C° 0 mm 0 mps 736 mmHg 51%
    09:00 +28°C° 0 mm 1 mps 736 mmHg 48%
    10:00 +30°C° 0 mm 2 mps 736 mmHg 45%
    11:00 +31°C° 0 mm 2 mps 736 mmHg 42%
    12:00 +31°C° 0 mm 3 mps 736 mmHg 45%
    13:00 +32°C° 0 mm 4 mps 735 mmHg 48%
    14:00 +32°C° 0 mm 4 mps 735 mmHg 51%
    15:00 +29°C° 0 mm 4 mps 735 mmHg 55%
    16:00 +28°C° 0 mm 3 mps 735 mmHg 59%
    17:00 +27°C° 0 mm 3 mps 734 mmHg 64%
    18:00 +25°C° 0 mm 3 mps 735 mmHg 68%
    19:00 +24°C° 0 mm 3 mps 735 mmHg 73%
    20:00 +22°C° 0 mm 3 mps 735 mmHg 78%
    21:00 +21°C° 0 mm 2 mps 735 mmHg 79%
    22:00 +21°C° 0 mm 2 mps 735 mmHg 80%
    23:00 +20°C° 0 mm 2 mps 735 mmHg 82%

    28 September, Saturday

    Time Temperature Precipitation Wind Pressure Humidity
    00:00 +21°C° 0 mm 1 mps 735 mmHg 82%
    01:00 +21°C° 0 mm 1 mps 735 mmHg 83%
    02:00 +20°C° 0 mm 1 mps 735 mmHg 84%
    03:00 +20°C° 0 mm 1 mps 735 mmHg 85%
    04:00 +20°C° 0 mm 1 mps 735 mmHg 86%
    05:00 +20°C° 0 mm 1 mps 735 mmHg 87%
    06:00 +22°C° 0 mm 1 mps 735 mmHg 80%
    07:00 +24°C° 0 mm 1 mps 736 mmHg 74%
    08:00 +26°C° 0 mm 1 mps 736 mmHg 68%
    09:00 +27°C° 0 mm 2 mps 736 mmHg 63%
    10:00 +28°C° 0 mm 3 mps 736 mmHg 58%
    11:00 +30°C° 0 mm 3 mps 736 mmHg 53%
    12:00 +29°C° 0 mm 4 mps 736 mmHg 53%
    13:00 +29°C° 0 mm 4 mps 735 mmHg 53%
    14:00 +29°C° 0 mm 4 mps 735 mmHg 54%
    15:00 +28°C° 0 mm 4 mps 735 mmHg 58%
    16:00 +27°C° 0 mm 3 mps 734 mmHg 63%
    17:00 +26°C° 0 mm 3 mps 734 mmHg 68%
    18:00 +24°C° 0 mm 2 mps 734 mmHg 73%
    19:00 +23°C° 0 mm 2 mps 735 mmHg 79%
    20:00 +20°C° 0 mm 2 mps 735 mmHg 84%
    21:00 +21°C° 0 mm 1 mps 735 mmHg 84%
    22:00 +20°C° 0 mm 1 mps 735 mmHg 84%
    23:00 +20°C° 0 mm 1 mps 735 mmHg 84%
    Show more